Weather History for KRKD - February, 2013

Change the Weather History Date:

Friday, February 22, 2013

  Actual Average Record
Temperature  
Mean Temperature 32 °F -  
Max Temperature 35 °F 32 °F 48 °F (1997)
Min Temperature 28 °F 18 °F 3 °F (1999)
Degree Days  
Heating Degree Days 34    
Moisture  
Dew Point 20 °F    
Average Humidity 63    
Maximum Humidity 74    
Minimum Humidity 52    
Precipitation  
Precipitation 0.00 in - - ()
Sea Level Pressure  
Sea Level Pressure 30.30 in    
Wind  
Wind Speed 9 mph (NNE)    
Max Wind Speed 15 mph    
Max Gust Speed 23 mph    
Visibility 10 miles    
Events      
Averages and records for this station are not official NWS values.
T = Trace of Precipitation, MM = Missing Value Source: NWS Daily Summary

Daily Weather History Graph

Daily Weather History Graph

Search for Another Location

Airport or City:

Trip Planner

Search our weather history database for the weather conditions in past years. The results will help you decide how hot, cold, wet, or windy it might be!

Date:

Astronomy

Feb. 22, 2013 Rise Set
Actual Time 6:24 AM EST 5:15 PM EST
Civil Twilight 5:55 AM EST 5:45 PM EST
Nautical Twilight 5:21 AM EST 6:18 PM EST
Astronomical Twilight 4:48 AM EST 6:52 PM EST
Moon 2:19 PM EST (2/22) 4:12 AM EST (2/22)
Length of Visible Light 11h 49m
Length of Day
10h 51m
Waxing Gibbous, 90% of the Moon is Illuminated
Feb 22
Waxing Gibbous
Feb 25
Full
Mar 4
Last Quarter
Mar 11
New
Mar 19
First Quarter

Hourly Weather History & Observations

Time (EST) Temp. Windchill Dew Point Humidity Pressure Visibility Wind Dir Wind Speed Gust Speed Precip Events Conditions
12:15 AM 33.8 °F 25.3 °F 23.0 °F 65% 30.10 in 10.0 mi North 11.5 mph 23.0 mph N/A   Overcast
12:35 AM 33.8 °F 25.3 °F 21.2 °F 60% 30.11 in 10.0 mi North 11.5 mph 23.0 mph N/A   Overcast
12:55 AM 33.8 °F 25.8 °F 21.2 °F 60% 30.12 in 10.0 mi North 10.4 mph 21.9 mph N/A   Overcast
1:15 AM 33.8 °F 25.8 °F 21.2 °F 60% 30.13 in 10.0 mi North 10.4 mph 19.6 mph N/A   Overcast
1:55 AM 33.8 °F 26.4 °F 21.2 °F 60% 30.16 in 10.0 mi North 9.2 mph 20.7 mph N/A   Overcast
2:15 AM 33.8 °F 28.6 °F 21.2 °F 60% 30.18 in 10.0 mi North 5.8 mph - N/A   Mostly Cloudy
2:35 AM 32.0 °F 23.0 °F 21.2 °F 64% 30.18 in 10.0 mi North 11.5 mph 16.1 mph N/A   Mostly Cloudy
2:55 AM 32.0 °F 23.6 °F 19.4 °F 60% 30.19 in 10.0 mi North 10.4 mph 19.6 mph N/A   Partly Cloudy
3:15 AM 32.0 °F 24.8 °F 21.2 °F 64% 30.20 in 10.0 mi North 8.1 mph 16.1 mph N/A   Clear
3:35 AM 30.2 °F 21.9 °F 19.4 °F 64% 30.21 in 10.0 mi North 9.2 mph - N/A   Scattered Clouds
3:55 AM 30.2 °F 22.6 °F 21.2 °F 69% 30.21 in 10.0 mi North 8.1 mph 18.4 mph N/A   Mostly Cloudy
4:15 AM 30.2 °F 21.9 °F 21.2 °F 69% 30.22 in 10.0 mi NNW 9.2 mph - N/A   Overcast
4:35 AM 30.2 °F 23.4 °F 19.4 °F 64% 30.23 in 10.0 mi NNW 6.9 mph - N/A   Mostly Cloudy
4:55 AM 30.2 °F 22.6 °F 21.2 °F 69% 30.24 in 10.0 mi North 8.1 mph - N/A   Partly Cloudy
5:15 AM 30.2 °F 23.4 °F 21.2 °F 69% 30.24 in 10.0 mi North 6.9 mph - N/A   Clear
5:35 AM 28.4 °F 21.2 °F 21.2 °F 74% 30.24 in 10.0 mi North 6.9 mph - N/A   Clear
5:55 AM 30.2 °F 23.4 °F 19.4 °F 64% 30.26 in 10.0 mi North 6.9 mph 20.7 mph N/A   Clear
6:15 AM 30.2 °F 21.3 °F 19.4 °F 64% 30.26 in 10.0 mi North 10.4 mph 18.4 mph N/A   Clear
6:35 AM 28.4 °F 21.2 °F 19.4 °F 69% 30.27 in 10.0 mi North 6.9 mph - N/A   Clear
6:55 AM 28.4 °F 21.2 °F 19.4 °F 69% 30.29 in 10.0 mi North 6.9 mph - N/A   Clear
7:15 AM 28.4 °F 22.2 °F 19.4 °F 69% 30.30 in 10.0 mi North 5.8 mph - N/A   Clear
7:35 AM 30.2 °F 21.3 °F 19.4 °F 64% 30.31 in 10.0 mi NNE 10.4 mph 18.4 mph N/A   Clear
7:55 AM 30.2 °F 21.3 °F 19.4 °F 64% 30.32 in 10.0 mi North 10.4 mph 18.4 mph N/A   Clear
8:15 AM 30.2 °F 20.8 °F 19.4 °F 64% 30.33 in 10.0 mi NNE 11.5 mph 18.4 mph N/A   Clear
8:35 AM 30.2 °F 20.8 °F 19.4 °F 64% 30.34 in 10.0 mi NNE 11.5 mph 17.3 mph N/A   Clear
8:56 AM 30.2 °F 21.9 °F 19.4 °F 64% 30.35 in 10.0 mi North 9.2 mph 18.4 mph N/A   Clear
9:15 AM 32.0 °F 23.6 °F 21.2 °F 64% 30.36 in 10.0 mi NNE 10.4 mph - N/A   Clear
9:35 AM 32.0 °F 25.6 °F 21.2 °F 64% 30.36 in 10.0 mi North 6.9 mph 16.1 mph N/A   Clear
9:55 AM 32.0 °F 22.5 °F 21.2 °F 64% 30.36 in 10.0 mi NE 12.7 mph 19.6 mph N/A   Clear
10:15 AM 32.0 °F 22.5 °F 19.4 °F 60% 30.35 in 10.0 mi NNE 12.7 mph 17.3 mph N/A   Clear
10:35 AM 33.8 °F 26.4 °F 21.2 °F 60% 30.35 in 10.0 mi NNE 9.2 mph - N/A   Clear
10:55 AM 33.8 °F 23.9 °F 19.4 °F 56% 30.35 in 10.0 mi NNE 15.0 mph 19.6 mph N/A   Clear
11:15 AM 33.8 °F 26.4 °F 21.2 °F 60% 30.35 in 10.0 mi NNE 9.2 mph 18.4 mph N/A   Clear
11:55 AM 33.8 °F 25.3 °F 21.2 °F 60% 30.34 in 10.0 mi NNE 11.5 mph - N/A   Clear
12:15 PM 33.8 °F 26.4 °F 21.2 °F 60% 30.33 in 10.0 mi NNE 9.2 mph - N/A   Clear
12:35 PM 33.8 °F 26.4 °F 19.4 °F 56% 30.33 in 10.0 mi NNE 9.2 mph 17.3 mph N/A   Clear
12:55 PM 35.6 °F 27.5 °F 19.4 °F 52% 30.33 in 10.0 mi NNE 11.5 mph - N/A   Clear
1:15 PM 35.6 °F 28.0 °F 19.4 °F 52% 30.33 in 10.0 mi NNE 10.4 mph 17.3 mph N/A   Clear
1:35 PM 35.6 °F 27.5 °F 19.4 °F 52% 30.32 in 10.0 mi NNE 11.5 mph 17.3 mph N/A   Clear
1:55 PM 35.6 °F 28.0 °F 19.4 °F 52% 30.32 in 10.0 mi NNE 10.4 mph - N/A   Clear
2:15 PM 35.6 °F 28.6 °F 19.4 °F 52% 30.32 in 10.0 mi NE 9.2 mph - N/A   Clear
2:35 PM 35.6 °F 28.0 °F 19.4 °F 52% 30.32 in 10.0 mi ENE 10.4 mph - N/A   Clear
2:55 PM 35.6 °F 27.5 °F 19.4 °F 52% 30.32 in 10.0 mi NE 11.5 mph - N/A   Clear
3:15 PM 35.6 °F 29.9 °F 21.2 °F 56% 30.32 in 10.0 mi NE 6.9 mph - N/A   Clear
3:35 PM 35.6 °F 29.2 °F 21.2 °F 56% 30.32 in 10.0 mi NE 8.1 mph - N/A   Clear
3:55 PM 35.6 °F 28.6 °F 21.2 °F 56% 30.32 in 10.0 mi NE 9.2 mph - N/A   Clear
4:15 PM 35.6 °F 28.6 °F 19.4 °F 52% 30.32 in 10.0 mi NE 9.2 mph - N/A   Clear
4:35 PM 35.6 °F 29.9 °F 19.4 °F 52% 30.32 in 10.0 mi NE 6.9 mph - N/A   Clear
5:15 PM 33.8 °F 30.8 °F 21.2 °F 60% 30.33 in 10.0 mi NE 3.5 mph - N/A   Clear
5:35 PM 32.0 °F - 19.4 °F 60% 30.33 in 10.0 mi Calm Calm - N/A   Clear
5:55 PM 30.2 °F - 21.2 °F 69% 30.33 in 10.0 mi Calm Calm - N/A   Clear
6:15 PM 28.4 °F - 21.2 °F 74% 30.34 in 10.0 mi Calm Calm - N/A   Clear
6:35 PM 28.4 °F - 21.2 °F 74% 30.34 in 10.0 mi Calm Calm - N/A   Clear
6:55 PM 30.2 °F 26.7 °F 21.2 °F 69% 30.33 in 10.0 mi NNE 3.5 mph - N/A   Clear
7:15 PM 30.2 °F 24.3 °F 21.2 °F 69% 30.33 in 10.0 mi NNE 5.8 mph - N/A   Clear
7:35 PM 30.2 °F 25.4 °F 21.2 °F 69% 30.34 in 10.0 mi NNE 4.6 mph - N/A   Clear
7:55 PM 30.2 °F 24.3 °F 21.2 °F 69% 30.34 in 10.0 mi NNE 5.8 mph - N/A   Clear
8:15 PM 30.2 °F 26.7 °F 21.2 °F 69% 30.34 in 10.0 mi NNE 3.5 mph - N/A   Clear
8:35 PM 30.2 °F 24.3 °F 21.2 °F 69% 30.35 in 10.0 mi NE 5.8 mph - N/A   Clear
8:55 PM 30.2 °F 23.4 °F 19.4 °F 64% 30.35 in 10.0 mi NNE 6.9 mph - N/A   Clear
9:15 PM 30.2 °F 25.4 °F 21.2 °F 69% 30.35 in 10.0 mi NNE 4.6 mph - N/A   Clear
9:35 PM 30.2 °F 25.4 °F 21.2 °F 69% 30.36 in 10.0 mi NNE 4.6 mph - N/A   Clear
9:55 PM 30.2 °F 26.7 °F 21.2 °F 69% 30.36 in 10.0 mi NNE 3.5 mph - N/A   Clear
10:15 PM 28.4 °F 23.3 °F 19.4 °F 69% 30.35 in 10.0 mi NNE 4.6 mph - N/A   Clear
10:35 PM 30.2 °F 23.4 °F 21.2 °F 69% 30.35 in 10.0 mi NE 6.9 mph - N/A   Clear
10:55 PM 28.4 °F 22.2 °F 21.2 °F 74% 30.36 in 10.0 mi NE 5.8 mph - N/A   Clear
11:15 PM 28.4 °F 20.4 °F 21.2 °F 74% 30.34 in 10.0 mi NE 8.1 mph - N/A   Clear
11:35 PM 30.2 °F 22.6 °F 21.2 °F 69% 30.34 in 10.0 mi NE 8.1 mph - N/A   Clear
11:55 PM 28.4 °F 21.2 °F 21.2 °F 74% 30.34 in 10.0 mi NNE 6.9 mph - N/A   Clear